FW7026 Weather Reports


time (UTC)temp
C
wind
direction
speed
KPH
gust
KPH
rain 1hr
cm
rain 24hr
cm
rain mn
cm
humidity
%
barometer
mb
20260508122650 8 344 3.2 8.0 0.00 0.00 0.00 62 1002.2
20260508122147 7 250 1.6 3.2 0.00 0.00 0.00 67 1002.2
20260508121645 7 337 4.8 8.0 0.00 0.00 0.00 66 1002.2
20260508121143 6 160 0.0 0.0 0.00 0.00 0.00 70 1002.2
20260508120640 6 311 0.0 8.0 0.00 0.00 0.00 70 1002.2
20260508120139 5 129 0.0 0.0 0.00 0.00 0.00 71 1002.2
20260508115636 5 191 0.0 0.0 0.00 0.00 0.00 71 1002.2
20260508115132 5 199 0.0 0.0 0.00 0.00 0.00 73 1002.2
20260508114629 5 263 0.0 0.0 0.00 0.00 0.00 74 1002.2
20260508114125 5 66 0.0 0.0 0.00 0.00 0.00 76 1001.9
20260508113623 5 245 0.0 0.0 0.00 0.00 0.00 78 1001.9
20260508113121 5 235 1.6 3.2 0.00 0.00 0.00 81 1001.9
20260508112617 5 106 0.0 0.0 0.00 0.00 0.00 82 1001.9
20260508112114 5 281 0.0 0.0 0.00 0.00 0.00 85 1001.9
20260508111611 5 191 0.0 0.0 0.00 0.00 0.00 85 1001.9
20260508111108 5 220 0.0 0.0 0.00 0.00 0.00 86 1001.9
20260508110606 5 201 0.0 0.0 0.00 0.00 0.00 86 1001.6
20260508105557 4 200 0.0 0.0 0.00 0.00 0.00 86 1001.6
20260508105054 4 128 0.0 0.0 0.00 0.00 0.00 86 1001.6
20260508104552 4 288 0.0 3.2 0.00 0.00 0.00 86 1001.9
20260508104048 4 278 0.0 0.0 0.00 0.00 0.00 86 1001.6
20260508103545 4 131 0.0 0.0 0.00 0.00 0.00 86 1001.6
20260508103043 3 225 0.0 0.0 0.00 0.00 0.00 86 1001.2
20260508102540 3 220 0.0 0.0 0.00 0.00 0.00 86 1001.2
20260508102038 3 196 0.0 0.0 0.00 0.00 0.00 86 1001.6
20260508101535 3 216 0.0 0.0 0.00 0.00 0.00 85 1001.2
20260508101032 3 203 0.0 0.0 0.00 0.00 0.00 85 1001.2
20260508100530 3 199 0.0 0.0 0.00 0.00 0.00 85 1001.2
20260508100027 3 207 0.0 0.0 0.00 0.00 0.00 84 1000.9
20260508095524 3 214 0.0 0.0 0.00 0.00 0.00 84 1001.2
20260508095021 3 203 0.0 0.0 0.00 0.00 0.00 84 1001.2
20260508094518 3 211 0.0 0.0 0.00 0.00 0.00 83 1000.9
20260508094015 3 195 0.0 0.0 0.00 0.00 0.00 83 1000.9
20260508093511 3 240 0.0 0.0 0.00 0.00 0.00 82 1000.9
20260508093010 3 329 0.0 0.0 0.00 0.00 0.00 82 1000.9
20260508092507 3 353 0.0 0.0 0.00 0.00 0.00 82 1000.9
20260508092006 3 1 0.0 0.0 0.00 0.00 0.00 81 1000.9
20260508091502 3 186 0.0 0.0 0.00 0.00 0.00 81 1000.4
20260508090959 3 220 0.0 0.0 0.00 0.00 0.00 81 1000.4
20260508090457 3 230 0.0 0.0 0.00 0.00 0.00 80 1000.4
20260508085953 3 9 0.0 0.0 0.00 0.00 0.00 80 1000.4
20260508085450 3 16 0.0 0.0 0.00 0.00 0.00 80 1000.4
20260508084947 3 161 0.0 0.0 0.00 0.00 0.00 80 1000.4
20260508084443 3 105 0.0 0.0 0.00 0.00 0.00 80 1000.4
20260508083942 3 235 0.0 0.0 0.00 0.00 0.00 80 1000.4
20260508083438 3 201 0.0 0.0 0.00 0.00 0.00 80 1000.4
20260508082938 3 220 0.0 0.0 0.00 0.00 0.00 80 1000.4
20260508082436 3 193 0.0 0.0 0.00 0.00 0.00 80 1000.4
20260508081934 3 203 0.0 0.0 0.00 0.00 0.00 79 1000.4
20260508081430 3 182 0.0 0.0 0.00 0.00 0.00 79 1000.1
20260508080926 3 199 0.0 0.0 0.00 0.00 0.00 79 1000.4
20260508080425 3 203 0.0 0.0 0.00 0.00 0.00 79 1000.1
20260508075921 3 196 0.0 0.0 0.00 0.00 0.00 78 1000.1
20260508075418 3 208 0.0 0.0 0.00 0.00 0.00 78 1000.1
20260508074916 3 209 0.0 0.0 0.00 0.00 0.00 78 1000.1
20260508074413 3 199 0.0 0.0 0.00 0.00 0.00 78 1000.1
20260508073910 3 206 0.0 0.0 0.00 0.00 0.00 77 1000.1
20260508073408 3 193 0.0 0.0 0.00 0.00 0.00 77 1000.1
20260508072904 3 194 0.0 0.0 0.00 0.00 0.00 77 1000.1
20260508072401 3 183 0.0 0.0 0.00 0.00 0.00 77 1000.1
20260508071857 3 168 0.0 0.0 0.00 0.00 0.00 76 1000.1
20260508071356 3 184 0.0 0.0 0.00 0.00 0.00 76 1000.1
20260508070853 3 191 0.0 0.0 0.00 0.00 0.00 76 1000.1
20260508070351 3 223 0.0 0.0 0.00 0.00 0.00 76 1000.1
20260508065849 3 192 0.0 0.0 0.00 0.00 0.00 76 1000.4
20260508065347 3 220 0.0 0.0 0.00 0.00 0.00 76 1000.1
20260508064845 3 189 0.0 8.0 0.00 0.00 0.00 76 1000.1
20260508064342 3 194 0.0 0.0 0.00 0.00 0.00 76 1000.1
20260508063840 3 257 0.0 0.0 0.00 0.00 0.00 75 1000.4
20260508063337 3 220 0.0 0.0 0.00 0.00 0.00 75 1000.4
20260508062834 3 186 0.0 0.0 0.00 0.00 0.00 75 1000.1
20260508062332 3 177 0.0 0.0 0.00 0.00 0.00 75 1000.4
20260508061828 3 215 0.0 0.0 0.00 0.00 0.00 75 1000.4
20260508061326 3 138 0.0 0.0 0.00 0.00 0.00 75 1000.1
20260508060822 3 221 0.0 3.2 0.00 0.00 0.00 74 1000.4
20260508060320 3 218 0.0 0.0 0.00 0.00 0.00 74 1000.4
20260508055814 3 262 0.0 0.0 0.00 0.00 0.00 74 1000.4
20260508055313 3 204 0.0 0.0 0.00 0.00 0.00 74 1000.4
20260508054809 3 259 0.0 0.0 0.00 0.00 0.00 74 1000.4
20260508054306 3 240 0.0 0.0 0.00 0.00 0.00 74 1000.4
20260508053803 3 228 0.0 0.0 0.00 0.00 0.00 74 1000.4
20260508053300 3 238 0.0 0.0 0.00 0.00 0.00 74 1000.4
20260508052758 3 203 0.0 0.0 0.00 0.00 0.00 74 1000.4
20260508052255 3 212 0.0 0.0 0.00 0.00 0.00 75 1000.4
20260508051751 3 198 0.0 0.0 0.00 0.00 0.00 75 1000.4
20260508051246 3 226 0.0 8.0 0.00 0.00 0.00 76 1000.4
20260508050743 3 210 0.0 3.2 0.00 0.00 0.00 76 1000.4
20260508050240 2 173 0.0 0.0 0.00 0.00 0.00 77 1000.9
20260508045735 2 254 0.0 8.0 0.00 0.00 0.00 77 1000.4
20260508045234 2 200 0.0 0.0 0.00 0.00 0.00 77 1000.9
20260508044731 2 236 0.0 0.0 0.00 0.00 0.00 78 1000.9
20260508044228 2 207 0.0 0.0 0.00 0.00 0.00 78 1000.9
20260508043724 2 181 0.0 0.0 0.00 0.00 0.00 78 1000.9
20260508043221 2 206 0.0 0.0 0.00 0.00 0.00 78 1000.9
20260508042718 2 228 0.0 0.0 0.00 0.00 0.00 78 1000.9
20260508042215 2 192 0.0 0.0 0.00 0.00 0.00 78 1000.9
20260508041711 2 196 0.0 0.0 0.00 0.00 0.00 77 1000.9
20260508041209 2 197 0.0 0.0 0.00 0.00 0.00 77 1000.9
20260508040705 2 199 0.0 0.0 0.00 0.00 0.00 77 1000.9
20260508040202 2 190 0.0 0.0 0.00 0.00 0.00 77 1000.9
20260508035659 2 190 0.0 0.0 0.00 1.12 1.12 77 1000.9
20260508035157 2 202 0.0 0.0 0.00 1.12 1.12 77 1000.9
20260508034653 2 216 0.0 0.0 0.00 1.12 1.12 77 1000.9
20260508034150 2 196 0.0 0.0 0.00 1.12 1.12 77 1000.9
20260508033648 2 196 0.0 0.0 0.00 1.12 1.12 77 1000.9
20260508033146 2 208 0.0 0.0 0.00 1.12 1.12 76 1000.9
20260508032643 2 208 0.0 0.0 0.00 1.12 1.12 76 1000.9
20260508032140 3 195 0.0 0.0 0.00 1.12 1.12 76 1000.9
20260508031637 3 208 0.0 0.0 0.00 1.12 1.12 76 1000.9
20260508031133 3 186 0.0 0.0 0.00 1.12 1.12 76 1000.9
20260508030629 3 217 0.0 0.0 0.00 1.12 1.12 76 1000.9
20260508030127 3 218 0.0 0.0 0.00 1.12 1.12 76 1001.2
20260508025623 3 268 0.0 0.0 0.00 1.12 1.12 76 1001.2
20260508025121 3 190 0.0 0.0 0.00 1.12 1.12 76 1001.2
20260508024616 3 195 0.0 0.0 0.00 1.12 1.12 76 1001.2
20260508024114 3 183 0.0 0.0 0.00 1.12 1.12 76 1001.2
20260508023610 3 192 0.0 0.0 0.00 1.12 1.12 76 1001.6
20260508023108 4 195 0.0 0.0 0.00 1.12 1.12 76 1001.2
20260508022603 4 204 0.0 0.0 0.00 1.12 1.12 76 1001.6
20260508022101 4 200 0.0 0.0 0.00 1.12 1.12 76 1001.6
20260508021556 4 220 0.0 0.0 0.00 1.12 1.12 76 1001.6
20260508021052 4 205 0.0 0.0 0.00 1.12 1.12 76 1001.2
20260508020550 4 201 0.0 0.0 0.00 1.12 1.12 76 1001.6
20260508020048 4 211 0.0 0.0 0.00 1.12 1.12 76 1001.6
20260508015545 4 190 0.0 0.0 0.00 1.12 1.12 76 1001.6
20260508015042 4 192 0.0 0.0 0.00 1.12 1.12 76 1001.2
20260508014538 4 207 0.0 0.0 0.00 1.12 1.12 76 1001.2
20260508014034 4 200 0.0 0.0 0.00 1.12 1.12 76 1001.6
20260508013530 4 206 0.0 0.0 0.00 1.12 1.12 75 1001.6
20260508013028 5 204 0.0 0.0 0.00 1.12 1.12 75 1001.6
20260508012525 5 200 0.0 0.0 0.00 1.12 1.12 75 1001.6
20260508012022 5 213 0.0 0.0 0.00 1.12 1.12 75 1001.6
20260508011520 5 268 0.0 0.0 0.00 1.12 1.12 75 1001.6
20260508011017 5 10 0.0 0.0 0.00 1.12 1.12 74 1001.6
20260508010514 5 352 0.0 3.2 0.00 1.12 1.12 74 1001.6
20260508010012 5 109 0.0 8.0 0.00 1.12 1.12 71 1001.9
20260508005508 5 279 0.0 0.0 0.00 1.12 1.12 70 1001.9
20260508005005 5 261 0.0 3.2 0.00 1.12 1.12 69 1001.9
20260508004501 6 197 0.0 8.0 0.00 1.12 1.12 68 1001.9
20260508003958 5 213 0.0 0.0 0.00 1.12 1.12 70 1001.2
20260508003454 5 232 0.0 0.0 0.00 1.12 1.12 70 1001.2
20260508002952 5 211 0.0 0.0 0.00 1.12 1.12 69 1001.2
20260508002448 5 203 0.0 0.0 0.00 1.12 1.12 69 1001.2
20260508001944 5 221 0.0 0.0 0.00 1.12 1.12 68 1001.2
20260508001440 5 205 0.0 0.0 0.00 1.12 1.12 68 1000.9
20260508000937 6 200 0.0 0.0 0.00 1.12 1.12 67 1001.2
20260508000434 6 205 0.0 0.0 0.00 1.12 1.12 67 1000.9
20260507235930 6 206 0.0 0.0 0.00 1.12 1.12 66 1000.9
20260507235427 6 192 0.0 0.0 0.00 1.12 1.12 66 1000.9
20260507234924 6 198 0.0 0.0 0.00 1.12 1.12 65 1000.9
20260507234421 7 93 0.0 3.2 0.00 1.12 1.12 64 1000.9
20260507233917 7 164 0.0 0.0 0.00 1.12 1.12 65 1000.9
20260507233414 7 197 0.0 3.2 0.00 1.12 1.12 63 1000.9
20260507232913 7 187 0.0 0.0 0.00 1.12 1.12 63 1000.9
20260507232409 7 197 0.0 0.0 0.00 1.12 1.12 63 1000.4
20260507231906 7 212 0.0 0.0 0.00 1.12 1.12 62 1000.9
20260507231403 7 186 0.0 0.0 0.00 1.12 1.12 61 1000.9
20260507230859 8 219 0.0 0.0 0.00 1.12 1.12 60 1000.4
20260507230357 8 345 0.0 8.0 0.00 1.12 1.12 60 1000.9
20260507225856 8 201 0.0 3.2 0.00 1.12 1.12 61 1000.4
20260507225353 8 123 0.0 3.2 0.00 1.12 1.12 60 1000.4
20260507224849 8 243 0.0 0.0 0.00 1.12 1.12 62 1000.4
20260507224346 8 215 0.0 12.9 0.00 1.12 1.12 63 1000.4
20260507223841 8 207 0.0 0.0 0.00 1.12 1.12 66 1000.4
20260507223338 8 195 0.0 0.0 0.00 1.12 1.12 65 1000.4
20260507222835 8 234 0.0 12.9 0.00 1.12 1.12 66 1000.4
20260507222331 9 177 1.6 3.2 0.00 1.12 1.12 66 1000.4
20260507221829 9 263 0.0 8.0 0.00 1.12 1.12 65 1000.4
20260507221325 9 238 0.0 8.0 0.00 1.12 1.12 65 1000.1
20260507220821 9 17 0.0 3.2 0.00 1.12 1.12 64 999.8
20260507220320 9 286 6.4 20.9 0.00 1.12 1.12 65 1000.1
20260507215816 10 193 0.0 0.0 0.00 1.12 1.12 68 1000.1
20260507215313 9 197 0.0 8.0 0.00 1.12 1.12 67 1000.1
20260507214810 9 191 0.0 0.0 0.00 1.12 1.12 66 999.8
20260507214308 10 206 0.0 0.0 0.00 1.12 1.12 65 999.8
20260507213802 10 152 0.0 3.2 0.00 1.12 1.12 65 999.8
20260507213259 10 317 0.0 8.0 0.00 1.12 1.12 66 999.8
20260507212756 10 280 0.0 0.0 0.00 1.12 1.12 68 999.8
20260507212252 10 258 0.0 0.0 0.00 1.12 1.12 67 999.8
20260507211749 10 226 0.0 0.0 0.00 1.12 1.12 67 999.8
20260507211245 10 196 0.0 0.0 0.00 1.12 1.12 68 999.8
20260507210742 10 154 0.0 0.0 0.00 1.12 1.12 67 999.4
20260507210239 10 31 0.0 0.0 0.00 1.12 1.12 67 999.4
20260507205736 10 193 0.0 0.0 0.00 1.12 1.12 70 999.4
20260507205233 10 201 0.0 0.0 0.00 1.12 1.12 71 999.4
20260507204729 9 217 0.0 0.0 0.00 1.12 1.12 70 999.4
20260507204227 9 189 0.0 0.0 0.00 1.12 1.12 70 999.4
20260507203724 9 357 0.0 0.0 0.00 1.12 1.12 68 999.4
20260507203222 9 148 0.0 8.0 0.00 1.12 1.12 67 999.1
20260507202718 10 342 0.0 0.0 0.00 1.12 1.12 67 999.1
20260507202214 10 355 0.0 0.0 0.00 1.12 1.12 69 999.1
20260507201709 10 333 0.0 0.0 0.00 1.12 1.12 73 999.1
20260507201206 8 14 1.6 12.9 0.00 1.12 1.12 73 999.1
20260507200702 8 333 0.0 0.0 0.00 1.12 1.12 75 999.1
20260507200158 8 33 0.0 8.0 0.00 1.12 1.12 75 999.4
20260507195655 8 347 1.6 12.9 0.00 1.12 1.12 75 999.4
20260507195152 8 14 0.0 8.0 0.00 1.12 1.12 75 999.4
20260507194649 9 1 0.0 3.2 0.00 1.12 1.12 76 999.4
20260507194144 8 8 0.0 0.0 0.00 1.12 1.12 77 999.4
20260507193641 8 1 6.4 8.0 0.00 1.12 1.12 76 999.4
20260507193139 8 330 0.0 0.0 0.00 1.12 1.12 76 999.4
20260507192634 7 3 0.0 12.9 0.00 1.12 1.12 76 999.8
20260507192132 7 359 0.0 0.0 0.00 1.12 1.12 76 999.4
20260507191627 7 12 0.0 0.0 0.18 1.12 1.12 75 999.8
20260507191124 7 183 0.0 0.0 0.36 1.12 1.12 75 999.8
20260507190622 7 204 0.0 0.0 0.36 1.09 1.09 72 999.8
20260507190120 7 114 0.0 0.0 0.18 1.04 1.04 71 999.8
20260507185619 9 333 0.0 3.2 0.00 1.02 1.02 63 999.4
20260507185114 10 205 0.0 3.2 0.00 1.02 1.02 62 999.4
20260507184613 11 79 0.0 0.0 0.00 1.02 1.02 58 999.1
20260507184110 11 57 1.6 12.9 0.00 1.02 1.02 58 999.1
20260507183606 11 264 0.0 3.2 0.00 1.02 1.02 57 999.1
20260507183103 11 90 4.8 12.9 0.00 1.02 1.02 55 998.7
20260507182559 12 160 0.0 0.0 0.00 1.02 1.02 56 999.1
20260507182055 11 126 0.0 0.0 0.00 1.02 1.02 56 999.1
20260507181553 11 341 0.0 0.0 0.00 1.02 1.02 56 999.1
20260507181049 11 5 0.0 0.0 0.00 1.02 1.02 54 999.4
20260507180545 11 349 0.0 0.0 0.00 1.02 1.02 56 999.1
20260507180042 11 173 0.0 0.0 0.00 1.02 1.02 56 999.4
20260507175538 12 195 0.0 0.0 0.00 1.02 1.02 54 999.4
20260507175037 12 214 0.0 0.0 0.00 1.02 1.02 54 999.8
20260507174533 12 223 0.0 0.0 0.00 1.02 1.02 50 999.4
20260507174031 12 126 0.0 3.2 0.00 1.02 1.02 50 999.4
20260507173527 12 190 0.0 0.0 0.00 1.02 1.02 51 999.4
20260507173025 12 9 0.0 0.0 0.00 1.02 1.02 50 999.4
20260507172521 12 174 0.0 0.0 0.00 1.02 1.02 54 999.4
20260507172018 12 238 0.0 0.0 0.00 1.02 1.02 52 999.4
20260507171513 12 299 0.0 0.0 0.00 1.02 1.02 55 999.8
20260507171011 12 230 0.0 0.0 0.00 1.02 1.02 55 999.8
20260507170507 12 216 0.0 0.0 0.00 1.02 1.02 57 999.8
20260507170004 11 226 0.0 0.0 0.00 1.02 1.02 55 999.8
20260507165500 11 190 0.0 0.0 0.00 1.02 1.02 54 999.8
20260507164956 11 234 0.0 0.0 0.00 1.02 1.02 54 999.8
20260507164453 12 198 0.0 0.0 0.00 1.02 1.02 58 999.8
20260507163949 11 206 0.0 0.0 0.00 1.02 1.02 54 999.8
20260507163447 11 243 0.0 3.2 0.00 1.02 1.02 56 999.8
20260507162944 11 239 0.0 0.0 0.00 1.02 1.02 57 999.8
20260507162439 11 232 0.0 0.0 0.00 1.02 1.02 54 999.8
20260507161937 11 355 0.0 0.0 0.00 1.02 1.02 56 999.8
20260507161433 11 210 0.0 0.0 0.00 1.02 1.02 56 999.8
20260507160930 11 321 0.0 8.0 0.00 1.02 1.02 53 1000.1
20260507160426 11 31 0.0 0.0 0.00 1.02 1.02 54 1000.1
20260507155921 11 209 0.0 0.0 0.00 1.02 1.02 55 1000.4
20260507155418 11 206 0.0 0.0 0.00 1.02 1.02 58 1000.1
20260507154915 11 336 0.0 8.0 0.00 1.02 1.02 56 1000.1
20260507154412 12 37 3.2 12.9 0.00 1.02 1.02 55 1000.4
20260507153909 12 174 0.0 0.0 0.00 1.02 1.02 61 1000.4
20260507153405 12 251 6.4 8.0 0.00 1.02 1.02 67 1000.4
20260507152902 11 183 0.0 3.2 0.00 1.02 1.02 69 1000.4
20260507152358 11 41 3.2 8.0 0.00 1.02 1.02 66 1000.4
20260507151854 11 21 3.2 8.0 0.00 1.02 1.02 67 1000.4
20260507151351 11 21 1.6 3.2 0.00 1.02 1.02 67 1000.4
20260507150848 11 232 4.8 8.0 0.00 1.02 1.02 68 1000.4
20260507150344 11 223 0.0 8.0 0.00 1.02 1.02 69 1000.4
20260507145840 11 220 4.8 8.0 0.00 1.02 1.02 70 1000.4
20260507145338 11 198 0.0 0.0 0.00 1.02 1.02 74 1000.4
20260507144834 11 20 0.0 0.0 0.00 1.02 1.02 73 1000.4
20260507144331 10 3 0.0 0.0 0.00 1.02 1.02 74 1000.4
20260507143828 11 344 0.0 8.0 0.00 1.02 1.02 73 1000.9
20260507143325 10 30 6.4 8.0 0.00 1.02 1.02 75 1000.4
20260507142821 10 228 3.2 8.0 0.00 1.02 1.02 78 1000.9
20260507142318 10 162 0.0 3.2 0.00 1.02 1.02 79 1000.9
20260507141814 10 121 0.0 0.0 0.00 1.02 1.02 79 1001.2
20260507141311 8 167 0.0 8.0 0.00 1.02 1.02 86 1001.2
20260507140807 8 245 0.0 0.0 0.00 1.02 1.02 88 1001.2
20260507140305 7 252 0.0 0.0 0.00 1.02 1.02 91 1001.2
20260507135802 7 224 0.0 0.0 0.00 1.02 1.02 91 1001.2
20260507135259 8 228 0.0 0.0 0.00 1.02 1.02 92 1001.2
20260507134755 7 140 0.0 0.0 0.00 1.02 1.02 92 1001.2
20260507134252 7 100 0.0 3.2 0.00 1.02 1.02 92 1001.2
20260507133748 7 196 0.0 0.0 0.00 1.02 1.02 92 1001.6
20260507133244 7 220 0.0 0.0 0.00 1.02 1.02 92 1001.2
20260507132742 7 206 0.0 0.0 0.00 1.02 1.02 92 1001.6
20260507132239 6 334 0.0 0.0 0.00 1.02 1.02 92 1000.9
20260507131736 7 255 0.0 0.0 0.00 1.02 1.02 92 1000.4
20260507131233 7 220 0.0 0.0 0.00 1.02 1.02 92 1000.9
20260507130729 6 196 0.0 0.0 0.00 1.02 1.02 92 1001.2
20260507130227 6 90 0.0 3.2 0.00 1.02 1.02 92 1001.6
20260507125726 6 235 1.6 8.0 0.00 1.02 1.02 93 1001.6
20260507125223 6 185 0.0 0.0 0.00 1.02 1.02 93 1001.2
20260507124720 6 167 0.0 0.0 0.00 1.02 1.02 93 1001.2
20260507124217 6 285 0.0 0.0 0.00 1.02 1.02 93 1001.2
20260507123715 6 223 0.0 0.0 0.00 1.02 1.02 93 1001.2
20260507123212 6 17 0.0 0.0 0.00 1.02 1.02 93 1001.2